Track COSMOS 2485 (GLONASS) now! COSMOS 2485 (GLONASS) is classified as:
1 39155U 13019A 25115.74027435 .00000041 00000-0 00000+0 0 9997 2 39155 65.1927 87.6379 0024341 238.0585 121.6877 2.13104437 93380